User: anonymous   Login
Location: Unspecified
(0.0000°N, 0.0000°E)
Time: 07:50:18
(UTC+02:00)
Language:

METEOSAT 10 (MSG 3) - Orbit

View from above orbital plane
View from above orbital plane
View from above satellite
View from above satellite

Ground track
Ground track

The orbit data is extracted from the following two-line orbital elements,

1 38552U 12035B   22269.56090906  .00000064  00000-0  00000-0 0  9990
2 38552   1.6778  46.3868 0001196 130.6142  39.5701  1.00267657 37226
Epoch (UTC): 26 September 2022 13:27:42
Eccentricity: 0.0001196
inclination: 1.6778°
perigee height: 35782 km
apogee height: 35792 km
right ascension of ascending node: 46.3868°
argument of perigee: 130.6142°
revolutions per day: 1.00267657
mean anomaly at epoch: 39.5701°
orbit number at epoch: 3722

The dashed part of the orbit path shows where the satellite is in the earth's shadow,  

DLR